Voltar ao catálogo

STARLINK-1373

AtivoComunicaçõesVLEO
NORAD 45544·PAYLOAD·🇺🇸 United States

Lançado Apr 22, 2020 de Cape Canaveral Space Force Station

Loading…

Próximas Passagens (próximas 24 horas)

TLE

AtualizadoSource: CelesTrak SupGP

Época: Sep 14, 2026, 13:02 UTC

1 45544C 20025P   26257.54354167  .00069479  00000+0  31422-3 0  2574
2 45544  53.0353 237.0498 0005916  45.6568 286.4958 15.83195871    12

Acompanhe STARLINK-1373 em tempo real com AllMySat

Download on the App Store